Regional Weather Roundup
Issued by NWS Cleveland, OH

Home | Current Version | Previous Version | Text Only | Print | Product List | Glossary Off
Versions: 1 2 3 4 5 6 7 8 9 10 11 12 13 14 15 16 17 18 19 20 21 22 23 24 25 26 27 28 29 30 31 32 33 34 35 36 37 38 39 40 41 42 43 44 45 46 47 48 49 50

000
ASUS41 KCLE 240500
RWRCLE
OHIO REGIONAL WEATHER ROUNDUP
NATIONAL WEATHER SERVICE WILMINGTON, OH
100 AM EDT FRI OCT 24 2014

NOTE: "FAIR" INDICATES FEW OR NO CLOUDS BELOW 12,000 FEET WITH NO
SIGNIFICANT WEATHER AND/OR OBSTRUCTIONS TO VISIBILITY.

OHZ001>008-015>018-024>027-034-035-043-044-240600-
   NORTHWEST OHIO

CITY           SKY/WX    TMP DP  RH WIND       PRES   REMARKS
DEFIANCE       MOCLDY    39  36  89 CALM      30.12R
FINDLAY        PTCLDY    36  34  92 S5        30.10S
TOLEDO EXPRESS PTCLDY    37  35  92 CALM      30.10F
TOLEDO METCALF PTCLDY    42  36  79 CALM      30.11S
LIMA           MOCLDY    42  37  82 CALM      30.11R
$$

OHZ009>014-019>023-028>033-038-089-240600-
   NORTHEAST OHIO

CITY           SKY/WX    TMP DP  RH WIND       PRES   REMARKS
CLE-HOPKINS    MOCLDY    39  36  89 SW5       30.13S
CLE-LAKEFRONT  CLEAR     45  39  79 S6        30.10S
CUY CO. ARPT   NOT AVBL
LORAIN-ELYRIA  CLEAR     36  35  96 S5        30.11S
ASHTABULA      CLEAR     41  40  96 CALM      30.08F FOG
AKRON-CANTON   CLEAR     39  36  89 CALM      30.10F
WOOSTER        NOT AVBL
MANSFIELD      CLEAR     39  37  92 S5        30.11S
YOUNGSTOWN     PTCLDY    41  40  96 W6        30.07F
$$

OHZ042-051>053-060>062-070>072-077>081-240600-
  SOUTHWEST OHIO

CITY           SKY/WX    TMP DP  RH WIND       PRES   REMARKS
CINC-COVINGTON CLOUDY    44  39  82 CALM      30.11F
CINC-LUNKEN    CLOUDY    42  41  96 CALM      30.13F
HAMILTON       CLOUDY    41  40  96 CALM      30.12F
DAYTON         NOT AVBL
WRIGHT-PAT AFB CLOUDY    42  40  91 CALM      30.12S
DAYTON GENERAL CLOUDY    46  40  79 CALM      30.10F
WILMINGTON     CLOUDY    41  37  86 CALM      30.12R
$$

OHZ036-037-039>041-045>050-054>059-063>069-073>076-082>088-240600-
  CENTRAL AND SOUTHEAST OHIO

CITY           SKY/WX    TMP DP  RH WIND       PRES   REMARKS
COLUMBUS       MOCLDY    40  37  89 CALM      30.11S
OSU AIRPORT    PTCLDY    42  39  89 CALM      30.11S
BOLTON FIELD   NOT AVBL
RICKENBACK AFB NOT AVBL
NEWARK         CLEAR     37  34  89 CALM      30.12R
MARION         PTCLDY    36  34  92 S3        30.11S FOG
LANCASTER      PTCLDY    35  34  96 CALM      30.11F
ZANESVILLE     CLEAR     39  36  89 CALM      30.11S
NEW PHILLY     PTCLDY    39  37  92 CALM      30.11F
$$



USA.gov is the U.S. government's official web portal to all federal, state and local government web resources and services.